Meath Environmental Platform

Observations for Trim Market St

Time AQI Temp °C Hum % Pres Pa CO μg/m³ H₂S μg/m³ NO μg/m³ NO₂ μg/m³ O₃ μg/m³ SO₂ μg/m³ PM1 μg/m³ PM2.5 μg/m³ PM10 μg/m³
Saturday 15 August 2026
23:21 3 17.1 56 56,918 0.07 0 1.07 7.41 62.86 0 0 2.2 2.55
23:20 3 17.1 56 56,881 0.06 0 1.04 8.04 62.05 0 0 2.71 3.26
23:11 3 17.2 55 56,628 0.17 0 1.03 7.06 63.74 0 0.71 2.23 3.24
23:10 3 17.3 55 56,611 0.11 0 1.04 7.17 60.7 0 0 2.23 2.52
23:09 3 17.3 55 56,580 0.1 0 1.06 7.53 60.36 0 0 2.74 3.24
23:08 3 17.3 55 56,532 0.12 0 1.08 8.36 59.55 0 0.71 2.75 3.23
23:07 3 17.3 55 56,476 0.09 0 1.06 7.82 70.17 0 0.71 3.26 3.95
23:06 3 17.3 55 56,387 0.08 0 1.07 8.97 63.26 0 0 2.25 2.5
23:05 3 17.4 55 56,253 0.14 0 1.06 8.74 61 0 0 2.76 3.22
23:04 3 17.4 54 56,179 0.15 0 1.03 7.29 60.17 0 0 2.26 3.93
23:03 3 17.4 54 56,154 0.15 0 1.02 7.65 58.86 0 0.71 3.28 3.93
23:02 3 17.4 54 56,152 0.15 0 1.02 7.94 54.72 0 0.71 2.77 3.93
23:01 3 17.4 54 56,149 0.18 0 1.01 17 46.59 0 0 2.77 3.21
23:00 3 17.5 54 56,114 0.15 0 1.02 14.9 47.23 0 1.43 3.28 3.93
22:59 3 17.5 54 56,106 0.11 0 1.03 7.67 59.25 0 0.71 2.27 2.49
22:58 3 17.5 54 56,102 0.15 0 1.03 8.71 64.23 0 0.71 2.27 3.21
22:54 3 17.6 54 56,077 0.18 0 1.03 16.48 46.16 0 0 2.28 2.48
22:52 3 17.6 54 56,018 0.02 0 1.04 9.15 59.94 0 0 2.28 3.2
22:51 3 17.7 54 55,988 0 0 1.05 7.35 61.75 0 0 1.78 1.95
22:50 3 17.7 54 55,982 0.02 0 1.04 8.29 58.81 0 0 1.78 1.95